Lake of Egypt Weather Center

Moon Phase Calendar



Lake of Egypt Water Level
Online Cameras

 


      

Current Conditions in Goreville
2/25/2021 4:43:19 AM

31°F
Feels Like 22
Clear
Humidity
93%
Pressure
30.33"
Wind
9 mph (N)
Dew Point
30°F
UV Index
0/10 (Low)
Visibility
6 mi

Hourly Forecast

Date & Time Thu, Feb 25
4:00 AM
Thu, Feb 25
5:00 AM
Thu, Feb 25
6:00 AM
Thu, Feb 25
7:00 AM
Thu, Feb 25
8:00 AM
Thu, Feb 25
9:00 AM
Thu, Feb 25
10:00 AM
Thu, Feb 25
11:00 AM
Thu, Feb 25
12:00 PM
Thu, Feb 25
1:00 PM
Thu, Feb 25
2:00 PM
Thu, Feb 25
3:00 PM
Thu, Feb 25
4:00 PM
Thu, Feb 25
5:00 PM
Thu, Feb 25
6:00 PM
Thu, Feb 25
7:00 PM
Thu, Feb 25
8:00 PM
Thu, Feb 25
9:00 PM
Thu, Feb 25
10:00 PM
Thu, Feb 25
11:00 PM
Fri, Feb 26
12:00 AM
Fri, Feb 26
1:00 AM
Fri, Feb 26
2:00 AM
Fri, Feb 26
3:00 AM
Fri, Feb 26
4:00 AM
Fri, Feb 26
5:00 AM
Fri, Feb 26
6:00 AM
Fri, Feb 26
7:00 AM
Fri, Feb 26
8:00 AM
Fri, Feb 26
9:00 AM
Fri, Feb 26
10:00 AM
Fri, Feb 26
11:00 AM
Fri, Feb 26
12:00 PM
Fri, Feb 26
1:00 PM
Fri, Feb 26
2:00 PM
Fri, Feb 26
3:00 PM
Fri, Feb 26
4:00 PM
Fri, Feb 26
5:00 PM
Fri, Feb 26
6:00 PM
Fri, Feb 26
7:00 PM
Fri, Feb 26
8:00 PM
Fri, Feb 26
9:00 PM
Fri, Feb 26
10:00 PM
Fri, Feb 26
11:00 PM
Sat, Feb 27
12:00 AM
Sat, Feb 27
1:00 AM
Sat, Feb 27
2:00 AM
Sat, Feb 27
3:00 AM
Condition
Clear

Clear

Clear

Clear

Clear

Clear

Clear

Clear

Clear

Clear

Clear

Clouds

Clouds

Clouds

Clouds

Clouds

Clouds

Clouds

Clouds

Clouds

Clouds

Clouds

Clouds

Clouds

Clouds

Clouds

Clouds

Clouds

Clouds

Clouds

Clouds

Clouds

Clouds

Clear

Clouds

Clear

Clear

Clouds

Clouds

Clouds

Clouds

Rain

Clouds

Clouds

Clouds

Rain

Clouds

Clouds
Temperature 31°F33°F33°F33°F37°F40°F43°F45°F47°F49°F49°F49°F48°F46°F43°F42°F42°F40°F39°F39°F39°F38°F37°F36°F35°F35°F35°F35°F38°F40°F43°F47°F50°F52°F52°F51°F49°F48°F47°F47°F47°F48°F49°F49°F49°F49°F49°F47°F
Feels Like 21°F24°F25°F26°F28°F32°F35°F38°F40°F41°F41°F41°F40°F39°F37°F35°F35°F33°F32°F33°F32°F30°F29°F28°F28°F26°F27°F27°F30°F31°F34°F39°F43°F46°F46°F44°F43°F43°F42°F43°F43°F43°F43°F44°F44°F45°F45°F43°F
Cloudiness 1%1%0%0%0%0%0%0%0%0%0%18%23%38%48%100%100%100%100%100%100%100%100%100%98%94%92%100%100%100%96%78%65%10%12%8%7%14%27%100%100%100%100%100%100%100%100%100%
Visibility 6 mi6 mi6 mi6 mi6 mi6 mi6 mi6 mi6 mi6 mi6 mi6 mi6 mi6 mi6 mi6 mi6 mi6 mi6 mi6 mi6 mi6 mi6 mi6 mi6 mi6 mi6 mi6 mi6 mi6 mi6 mi6 mi6 mi6 mi6 mi6 mi6 mi6 mi6 mi6 mi6 mi6 mi6 mi6 mi6 mi6 mi6 mi6 mi
Precipitation 0%0%0%0%0%0%0%0%0%0%0%0%0%0%0%0%0%0%0%0%0%0%0%0%0%0%0%0%0%0%0%6%7%1%0%0%0%0%0%0%0%33%22%12%4%43%36%0%
Humidity 93%91%92%93%81%74%68%60%55%51%50%51%52%61%65%66%68%72%74%74%75%79%82%84%86%86%87%87%78%73%70%65%62%63%67%72%76%82%88%90%92%94%95%95%95%95%96%96%
Dew Point 30°F31°F31°F31°F32°F33°F33°F33°F32°F32°F32°F32°F32°F33°F32°F32°F32°F32°F31°F32°F31°F31°F31°F31°F30°F30°F30°F31°F31°F32°F34°F36°F38°F40°F42°F42°F42°F43°F44°F44°F45°F47°F48°F48°F48°F48°F48°F46°F
Pressure 30.33"30.33"30.33"30.36"30.39"30.39"30.39"30.39"30.36"30.33"30.33"30.3"30.3"30.33"30.33"30.33"30.33"30.3"30.3"30.3"30.27"30.27"30.24"30.21"30.18"30.18"30.18"30.15"30.15"30.15"30.15"30.12"30.09"30.03"30"29.97"29.97"29.97"29.97"29.97"29.97"29.97"29.97"29.97"29.97"29.97"29.97"29.97"
Wind Speed 10.6 mph9 mph6.9 mph6.9 mph8.8 mph8.7 mph7.9 mph7.2 mph7.1 mph7.9 mph8.9 mph8.8 mph8.1 mph5.3 mph4.6 mph6.1 mph5.7 mph6.5 mph6.4 mph5.6 mph6.6 mph6.4 mph6.5 mph7.2 mph7.2 mph9.1 mph8.1 mph8 mph8.5 mph8.7 mph8.6 mph8.3 mph7.8 mph7.1 mph8.6 mph9 mph8 mph7.2 mph6 mph5.1 mph6 mph7.7 mph8.9 mph9 mph8.4 mph7.9 mph5.9 mph6.3 mph
Wind
Direction

N

N

N

N
21°
NNE
24°
NNE
35°
NE
43°
NE
29°
NNE
19°
NNE
24°
NNE
28°
NNE
27°
NNE
27°
NNE
27°
NNE
47°
NE
60°
ENE
60°
ENE
63°
ENE
86°
E
77°
ENE
70°
ENE
53°
NE
55°
NE
78°
ENE
80°
E
86°
E
85°
E
99°
E
91°
E
104°
ESE
123°
ESE
136°
SE
156°
SSE
154°
SSE
160°
SSE
167°
SSE
178°
S
167°
SSE
168°
SSE
175°
S
186°
S
174°
S
197°
SSW
217°
SW
233°
SW
244°
WSW
242°
WSW

Daily Forecast

Date High Low Precip. Humidity
Today
Feb 25

Clear
49 °F
31 °F
0%
55%
Friday
Feb 26

Rain
52 °F
35 °F
33%
62%
Saturday
Feb 27

Rain
63 °F
44 °F
54%
51%
Sunday
Feb 28

Rain
67 °F
44 °F
100%
73%
Monday
Mar 1

Clear
50 °F
31 °F
14%
51%
Tuesday
Mar 2

Clear
53 °F
34 °F
0%
49%
Wednesday
Mar 3

Clear
56 °F
35 °F
0%
58%
Thursday
Mar 4

Clouds
60 °F
41 °F
0%
60%
Friday
Mar 5

Rain
46 °F
37 °F
95%
76%
Saturday
Mar 6

Clear
47 °F
29 °F
0%
55%
Sunday
Mar 7

Clouds
51 °F
31 °F
0%
49%
Monday
Mar 8

Clouds
59 °F
34 °F
0%
56%
Tuesday
Mar 9

Rain
59 °F
46 °F
100%
81%
Wednesday
Mar 10

Rain
45 °F
40 °F
87%
86%
Thursday
Mar 11

Rain
55 °F
42 °F
71%
85%
Friday
Mar 12

Rain
66 °F
58 °F
100%
85%


Temperature 8-14 Day Outlook



Precipitation 8-14 Day Outlook




Quick Links
Lake of Egypt News
Lake of Egypt Photos
Lake of Egypt Videos




About Us
Contact Us
Site Map
Search Site
Advertise With Us
   
Egypt.USLakes.info
THE LAKE OF EGYPT WEBSITE

Copyright 2021, Lakes Online
Privacy    |    Legal